Powrót do katalogu

OSCAR 17

DOVE

AktywnyKrótkofalarstwoSSO
NORAD 20440·PAYLOAD·🇧🇷 Brazil

Wystrzelony Jan 22, 1990 z Guiana Space Centre

Loading…

Następne Przeloty (najbliższe 24 godziny)

TLE

ŚwieżeSource: Space-Track

Epoka: Sep 14, 2026, 08:16 UTC

1 20440U 90005E   26257.34463145  .00000065  00000-0  39669-4 0  9994
2 20440  98.8558 290.0016 0009606 307.1712 117.8136 14.34513629915128

Śledź OSCAR 17 w czasie rzeczywistym z AllMySat

Download on the App Store